User: anonymous   Login
Location: Vesunti
(61.5000°N, 22.8333°E)
Time: 06:36:38
(UTC+00:00)
Language:

Cosmos 1174 - Orbit

View from above orbital plane
View from above orbital plane
View from above satellite
View from above satellite

Ground track
Ground track

The orbit data is extracted from the following two-line orbital elements,

1 11765U 80030A   20152.49498548 +.00000113 +00000-0 +16432-4 0  9997
2 11765 066.0855 217.0201 0544813 017.5374 344.3737 14.39708881059630
Epoch (UTC): 31 May 2020 11:52:46
Eccentricity: 0.0544813
inclination: 66.0855°
perigee height: 370 km
apogee height: 1148 km
right ascension of ascending node: 217.0201°
argument of perigee: 17.5374°
revolutions per day: 14.39708881
mean anomaly at epoch: 344.3737°
orbit number at epoch: 5963

The dashed part of the orbit path shows where the satellite is in the earth's shadow,  

DLR